CW8386 Weather Reports


Display with metric or nautical units.
time (UTC)temp
F
wind
direction
speed
MPH
gust
MPH
rain 1hr
in
rain 24hr
in
rain mn
in
humidity
%
barometer
mb
20200918234551 83 110 1.0 2.0 0.00 0.00 0.00 24 1015.7
20200918234032 83 360 0.0 3.0 0.00 0.00 0.00 25 1015.7
20200918233540 83 111 1.0 5.0 0.00 0.00 0.00 25 1015.7
20200918233112 84 110 1.0 5.0 0.00 0.00 0.00 25 1015.8
20200918232539 84 110 0.0 2.0 0.00 0.00 0.00 24 1015.8
20200918232042 84 110 0.0 3.0 0.00 0.00 0.00 24 1015.8
20200918231526 84 110 0.0 3.0 0.00 0.00 0.00 24 1015.8
20200918231108 84 110 1.0 5.0 0.00 0.00 0.00 24 1016.0
20200918230535 84 111 3.0 5.0 0.00 0.00 0.00 23 1016.0
20200918230031 84 111 1.0 5.0 0.00 0.00 0.00 24 1016.0
20200918225534 84 109 2.0 5.0 0.00 0.00 0.00 23 1016.0
20200918225116 84 110 0.0 3.0 0.00 0.00 0.00 24 1016.0
20200918224537 84 111 1.0 3.0 0.00 0.00 0.00 23 1016.0
20200918224041 84 111 0.0 0.0 0.00 0.00 0.00 23 1016.2
20200918223528 83 111 0.0 2.0 0.00 0.00 0.00 24 1016.3
20200918223035 83 111 1.0 2.0 0.00 0.00 0.00 24 1016.4
20200918222531 82 111 0.0 1.0 0.00 0.00 0.00 25 1016.4
20200918222035 82 111 0.0 2.0 0.00 0.00 0.00 25 1016.5
20200918221538 81 110 0.0 3.0 0.00 0.00 0.00 26 1016.5
20200918221040 80 111 0.0 6.0 0.00 0.00 0.00 26 1016.7
20200918220549 79 111 2.0 6.0 0.00 0.00 0.00 27 1016.8
20200918220026 79 111 0.0 7.0 0.00 0.00 0.00 26 1016.9
20200918215527 79 112 3.0 10.0 0.00 0.00 0.00 27 1017.0
20200918215030 79 113 5.0 11.0 0.00 0.00 0.00 27 1017.0
20200918214535 79 109 6.0 11.0 0.00 0.00 0.00 27 1017.0
20200918214100 79 103 5.0 10.0 0.00 0.00 0.00 27 1017.0
20200918213622 79 103 4.0 11.0 0.00 0.00 0.00 26 1017.2
20200918213043 80 103 7.0 11.0 0.00 0.00 0.00 26 1017.2
20200918212534 79 123 4.0 11.0 0.00 0.00 0.00 27 1017.2
20200918212030 79 129 5.0 11.0 0.00 0.00 0.00 28 1017.3
20200918211533 79 360 6.0 9.0 0.00 0.00 0.00 28 1017.3
20200918211057 79 360 3.0 7.0 0.00 0.00 0.00 28 1017.3
20200918210543 79 360 5.0 7.0 0.00 0.00 0.00 28 1017.4
20200918210104 78 115 1.0 7.0 0.00 0.00 0.00 29 1017.5
20200918205544 78 113 1.0 7.0 0.00 0.00 0.00 29 1017.6
20200918205026 78 111 1.0 12.0 0.00 0.00 0.00 29 1017.7
20200918204527 77 112 6.0 12.0 0.00 0.00 0.00 30 1017.7
20200918204049 77 115 6.0 11.0 0.00 0.00 0.00 30 1017.7
20200918203613 77 360 3.0 10.0 0.00 0.00 0.00 30 1017.8
20200918203032 77 133 3.0 9.0 0.00 0.00 0.00 31 1017.8
20200918202555 77 134 3.0 13.0 0.00 0.00 0.00 32 1017.9
20200918202036 77 360 6.0 13.0 0.00 0.00 0.00 31 1017.9
20200918201625 77 103 2.0 13.0 0.00 0.00 0.00 32 1018.0
20200918201042 77 113 7.0 10.0 0.00 0.00 0.00 31 1018.2
20200918200545 77 360 4.0 9.0 0.00 0.00 0.00 32 1018.2
20200918200028 78 360 4.0 9.0 0.00 0.00 0.00 30 1018.3
20200918195530 78 140 1.0 12.0 0.00 0.00 0.00 30 1018.4
20200918195042 78 360 3.0 12.0 0.00 0.00 0.00 29 1018.4
20200918194542 79 101 4.0 7.0 0.00 0.00 0.00 29 1018.5
20200918194108 80 96 3.0 7.0 0.00 0.00 0.00 29 1018.5
20200918193526 81 95 2.0 7.0 0.00 0.00 0.00 29 1018.5
20200918193030 81 96 0.0 2.0 0.00 0.00 0.00 27 1018.7
20200918192531 81 97 0.0 3.0 0.00 0.00 0.00 28 1018.7
20200918192035 80 96 1.0 4.0 0.00 0.00 0.00 31 1018.7
20200918191602 80 96 1.0 4.0 0.00 0.00 0.00 30 1018.7
20200918191123 80 96 0.0 7.0 0.00 0.00 0.00 29 1018.7
20200918190541 79 98 0.0 11.0 0.00 0.00 0.00 29 1018.9
20200918190104 80 96 8.0 11.0 0.00 0.00 0.00 29 1018.9
20200918185525 79 115 6.0 11.0 0.00 0.00 0.00 30 1019.0
20200918185053 79 88 1.0 9.0 0.00 0.00 0.00 30 1019.0
20200918184551 79 96 3.0 7.0 0.00 0.00 0.00 30 1019.2
20200918184034 78 94 3.0 10.0 0.00 0.00 0.00 31 1019.2
20200918183536 78 96 4.0 10.0 0.00 0.00 0.00 31 1019.3
20200918183040 78 89 5.0 9.0 0.00 0.00 0.00 31 1019.3
20200918182546 78 102 4.0 10.0 0.00 0.00 0.00 31 1019.4
20200918182028 77 103 5.0 10.0 0.00 0.00 0.00 31 1019.5
20200918181529 78 97 3.0 9.0 0.00 0.00 0.00 31 1019.5
20200918181032 78 94 5.0 9.0 0.00 0.00 0.00 31 1019.7
20200918180538 77 102 0.0 10.0 0.00 0.00 0.00 32 1019.7
20200918180043 77 103 6.0 10.0 0.00 0.00 0.00 32 1019.8
20200918175541 76 110 3.0 11.0 0.00 0.00 0.00 33 1019.9
20200918175106 76 103 4.0 11.0 0.00 0.00 0.00 33 1020.0
20200918174548 76 96 6.0 11.0 0.00 0.00 0.00 34 1020.0
20200918174030 76 96 6.0 10.0 0.00 0.00 0.00 34 1020.2
20200918173535 75 102 2.0 6.0 0.00 0.00 0.00 35 1019.4
20200918173053 75 101 2.0 6.0 0.00 0.00 0.00 35 1019.5
20200918172537 74 101 3.0 7.0 0.00 0.00 0.00 36 1019.6
20200918172041 74 102 4.0 7.0 0.00 0.00 0.00 36 1019.8
20200918171528 73 88 4.0 9.0 0.00 0.00 0.00 37 1019.9
20200918171049 73 90 5.0 9.0 0.00 0.00 0.00 37 1019.9
20200918170535 72 59 0.0 5.0 0.00 0.00 0.00 39 1020.1
20200918170038 71 360 0.0 2.0 0.00 0.00 0.00 38 1020.2
20200918165539 71 360 0.0 4.0 0.00 0.00 0.00 38 1020.2
20200918165039 70 360 0.0 4.0 0.00 0.00 0.00 39 1020.3
20200918164544 69 46 0.0 5.0 0.00 0.00 0.00 40 1020.4
20200918164044 68 46 3.0 5.0 0.00 0.00 0.00 41 1020.6
20200918163529 67 46 3.0 5.0 0.00 0.00 0.00 42 1020.5
20200918163050 66 42 0.0 5.0 0.00 0.00 0.00 43 1020.7
20200918162609 65 40 2.0 5.0 0.00 0.00 0.00 44 1020.8
20200918162036 65 45 0.0 4.0 0.00 0.00 0.00 45 1020.7
20200918161531 64 42 1.0 4.0 0.00 0.00 0.00 47 1020.8
20200918161116 63 360 3.0 5.0 0.00 0.00 0.00 48 1020.8
20200918160539 63 22 1.0 5.0 0.00 0.00 0.00 49 1020.8
20200918160110 63 360 1.0 4.0 0.00 0.00 0.00 50 1020.9
20200918155600 63 360 2.0 4.0 0.00 0.00 0.00 51 1020.9
20200918155058 62 360 0.0 3.0 0.00 0.00 0.00 53 1020.9
20200918154545 61 236 0.0 2.0 0.00 0.00 0.00 55 1021.0
20200918154032 60 360 0.0 3.0 0.00 0.00 0.00 55 1020.9
20200918153535 59 360 0.0 3.0 0.00 0.00 0.00 57 1020.9
20200918153046 59 360 0.0 3.0 0.00 0.00 0.00 58 1020.9
20200918152540 58 236 0.0 3.0 0.00 0.00 0.00 59 1020.9
20200918152046 58 360 0.0 2.0 0.00 0.00 0.00 58 1021.0
20200918151527 58 360 0.0 0.0 0.00 0.00 0.00 59 1021.0
20200918151049 57 360 0.0 0.0 0.00 0.00 0.00 60 1021.0
20200918150532 57 360 0.0 0.0 0.00 0.00 0.00 61 1021.0
20200918150034 56 360 0.0 0.0 0.00 0.00 0.00 62 1021.1
20200918145538 55 360 0.0 0.0 0.00 0.00 0.00 64 1021.1
20200918145040 54 360 0.0 0.0 0.00 0.00 0.00 66 1021.1
20200918144553 53 360 0.0 0.0 0.00 0.00 0.00 67 1021.1
20200918144031 52 360 0.0 4.0 0.00 0.00 0.00 68 1021.2
20200918143534 51 360 0.0 4.0 0.00 0.00 0.00 69 1021.2
20200918143041 51 360 0.0 0.0 0.00 0.00 0.00 68 1021.3
20200918142540 50 238 0.0 0.0 0.00 0.00 0.00 70 1021.4
20200918142104 50 238 0.0 0.0 0.00 0.00 0.00 70 1021.5
20200918141543 49 239 0.0 0.0 0.00 0.00 0.00 70 1021.5
20200918141029 48 238 0.0 0.0 0.00 0.00 0.00 71 1021.6
20200918140529 48 239 0.0 0.0 0.00 0.00 0.00 72 1021.6
20200918140032 47 238 0.0 0.0 0.00 0.00 0.00 73 1021.7
20200918135535 47 238 0.0 0.0 0.00 0.00 0.00 73 1021.7
20200918135039 47 238 0.0 0.0 0.00 0.00 0.00 73 1021.7
20200918134538 46 238 0.0 0.0 0.00 0.00 0.00 73 1021.7
20200918134039 46 238 0.0 0.0 0.00 0.00 0.00 73 1021.7
20200918133530 46 238 0.0 0.0 0.00 0.00 0.00 73 1021.7
20200918133033 46 238 0.0 0.0 0.00 0.00 0.00 73 1021.7
20200918132536 46 238 0.0 0.0 0.00 0.00 0.00 73 1021.8
20200918132042 45 238 0.0 5.0 0.00 0.00 0.00 73 1021.8
20200918131541 45 238 2.0 5.0 0.00 0.00 0.00 73 1021.8
20200918131046 45 360 0.0 1.0 0.00 0.00 0.00 74 1021.7
20200918130548 45 360 0.0 3.0 0.00 0.00 0.00 74 1021.7
20200918130030 45 360 0.0 3.0 0.00 0.00 0.00 74 1021.6
20200918125554 45 360 0.0 0.0 0.00 0.00 0.00 74 1021.6
20200918125055 45 360 0.0 4.0 0.00 0.00 0.00 74 1021.7
20200918124557 45 360 3.0 4.0 0.00 0.00 0.00 74 1021.7
20200918124102 45 360 2.0 3.0 0.00 0.00 0.00 73 1021.8
20200918123606 45 360 0.0 0.0 0.00 0.00 0.00 73 1021.8
20200918123024 46 360 0.0 0.0 0.00 0.00 0.00 72 1021.7
20200918122527 46 360 0.0 0.0 0.00 0.00 0.00 72 1021.7
20200918122029 46 360 0.0 0.0 0.00 0.00 0.00 71 1021.7
20200918121538 46 360 0.0 2.0 0.00 0.00 0.00 71 1021.7
20200918121041 46 360 0.0 2.0 0.00 0.00 0.00 71 1021.7
20200918120547 46 360 0.0 0.0 0.00 0.00 0.00 71 1021.7
20200918120111 46 360 0.0 3.0 0.00 0.00 0.00 72 1021.6
20200918115528 45 360 0.0 5.0 0.00 0.00 0.00 71 1021.7
20200918115030 46 360 0.0 4.0 0.00 0.00 0.00 71 1021.7
20200918114552 46 360 0.0 0.0 0.00 0.00 0.00 71 1021.8
20200918114035 46 360 0.0 0.0 0.00 0.00 0.00 71 1021.9
20200918113540 46 360 0.0 0.0 0.00 0.00 0.00 71 1021.7
20200918113044 46 360 0.0 0.0 0.00 0.00 0.00 71 1021.7
20200918112605 46 360 0.0 4.0 0.00 0.00 0.00 72 1021.8
20200918112026 46 360 1.0 4.0 0.00 0.00 0.00 71 1021.8
20200918111531 46 239 0.0 0.0 0.00 0.00 0.00 71 1021.8
20200918111033 46 239 0.0 0.0 0.00 0.00 0.00 70 1021.9
20200918110544 47 238 0.0 0.0 0.00 0.00 0.00 69 1021.8
20200918110112 47 239 0.0 0.0 0.00 0.00 0.00 69 1021.9
20200918105525 47 239 0.0 0.0 0.00 0.00 0.00 69 1021.9
20200918105028 48 239 0.0 0.0 0.00 0.00 0.00 68 1022.0
20200918104531 48 239 0.0 0.0 0.00 0.00 0.00 68 1022.0
20200918104034 48 239 0.0 0.0 0.00 0.00 0.00 67 1022.0
20200918103619 48 239 0.0 0.0 0.00 0.00 0.00 67 1022.0
20200918103037 48 239 0.0 0.0 0.00 0.00 0.00 67 1022.0
20200918102603 48 239 0.0 0.0 0.00 0.00 0.00 68 1022.0
20200918102103 48 239 0.0 0.0 0.00 0.00 0.00 68 1022.0
20200918101625 48 239 0.0 3.0 0.00 0.00 0.00 68 1022.1
20200918101024 48 239 0.0 4.0 0.00 0.00 0.00 68 1022.2
20200918100529 48 238 2.0 5.0 0.00 0.00 0.00 68 1022.3
20200918100033 48 238 0.0 4.0 0.00 0.00 0.00 68 1022.3
20200918095533 48 238 3.0 4.0 0.00 0.00 0.00 68 1022.4
20200918095043 48 238 0.0 0.0 0.00 0.00 0.00 67 1022.4
20200918094538 48 238 0.0 4.0 0.00 0.00 0.00 67 1022.4
20200918094024 49 238 2.0 4.0 0.00 0.00 0.00 66 1022.4
20200918093527 49 238 0.0 3.0 0.00 0.00 0.00 67 1022.4
20200918093051 48 238 2.0 3.0 0.00 0.00 0.00 67 1022.5
20200918092532 49 238 0.0 0.0 0.00 0.00 0.00 66 1022.5
20200918092037 49 238 0.0 0.0 0.00 0.00 0.00 65 1022.5
20200918091537 50 238 0.0 0.0 0.00 0.00 0.00 65 1022.5
20200918091041 50 238 0.0 0.0 0.00 0.00 0.00 64 1022.6
20200918090545 50 238 0.0 0.0 0.00 0.00 0.00 65 1022.6
20200918090048 50 238 0.0 0.0 0.00 0.00 0.00 65 1022.6
20200918085528 50 238 0.0 3.0 0.00 0.00 0.00 65 1022.6
20200918085058 50 238 0.0 4.0 0.00 0.00 0.00 65 1022.6
20200918084605 49 238 0.0 4.0 0.00 0.00 0.00 65 1022.5
20200918084037 50 238 0.0 5.0 0.00 0.00 0.00 64 1022.6
20200918083543 50 238 4.0 5.0 0.00 0.00 0.00 64 1022.6
20200918083044 50 238 1.0 2.0 0.00 0.00 0.00 64 1022.7
20200918082603 50 238 0.0 0.0 0.00 0.00 0.00 64 1022.8
20200918082030 50 238 0.0 0.0 0.00 0.00 0.00 64 1022.8
20200918081535 50 240 0.0 0.0 0.00 0.00 0.00 64 1022.8
20200918081115 50 240 0.0 4.0 0.00 0.00 0.00 64 1022.8
20200918080539 50 240 0.0 5.0 0.00 0.00 0.00 64 1022.8
20200918080039 50 240 4.0 6.0 0.00 0.00 0.00 64 1022.8
20200918075601 50 240 4.0 8.0 0.00 0.00 0.00 64 1022.8
20200918075105 49 238 6.0 8.0 0.00 0.00 0.00 65 1022.8
20200918074527 49 360 2.0 3.0 0.00 0.00 0.00 64 1022.9
20200918074048 49 360 0.0 5.0 0.00 0.00 0.00 64 1022.9
20200918073614 50 360 3.0 5.0 0.00 0.00 0.00 64 1022.9
20200918073031 50 360 0.0 4.0 0.00 0.00 0.00 63 1022.9
20200918072537 50 360 0.0 5.0 0.00 0.00 0.00 64 1022.9
20200918072043 50 360 3.0 5.0 0.00 0.00 0.00 63 1022.9
20200918071539 51 360 0.0 0.0 0.00 0.00 0.00 62 1023.0
20200918071042 51 360 0.0 2.0 0.00 0.00 0.00 61 1023.0
20200918070528 51 360 0.0 3.0 0.00 0.00 0.00 60 1023.0
20200918070050 52 360 2.0 4.0 0.00 0.00 0.00 60 1023.0
20200918065549 52 360 3.0 4.0 0.00 0.00 0.00 60 1023.0
20200918065038 52 360 0.0 3.0 0.00 0.00 0.00 59 1023.0
20200918064555 52 360 0.0 0.0 0.00 0.00 0.00 59 1023.0
20200918064038 52 360 0.0 4.0 0.00 0.00 0.00 59 1023.1
20200918063544 52 360 3.0 4.0 0.00 0.00 0.00 59 1023.2
20200918063025 53 360 0.0 0.0 0.00 0.00 0.00 58 1023.1
20200918062528 53 360 0.0 3.0 0.00 0.00 0.00 57 1023.1
20200918062031 54 360 1.0 3.0 0.00 0.00 0.00 56 1023.1
20200918061555 54 360 0.0 0.0 0.00 0.00 0.00 56 1023.0
20200918061102 54 360 0.0 0.0 0.00 0.00 0.00 56 1023.1
20200918060622 54 360 0.0 3.0 0.00 0.00 0.00 56 1023.0
20200918060123 54 360 1.0 3.0 0.00 0.00 0.00 56 1023.0
20200918055545 54 360 3.0 5.0 0.00 0.00 0.00 56 1023.0
20200918055051 54 360 1.0 3.0 0.00 0.00 0.00 56 1022.9
20200918054601 54 360 0.0 4.0 0.00 0.00 0.00 56 1023.0
20200918054032 55 360 0.0 4.0 0.00 0.00 0.00 55 1023.0
20200918053533 55 360 0.0 7.0 0.00 0.00 0.00 55 1023.0
20200918053035 55 360 4.0 7.0 0.00 0.00 0.00 55 1023.1
20200918052557 55 360 3.0 6.0 0.00 0.00 0.00 55 1023.0
20200918052039 55 360 0.0 6.0 0.00 0.00 0.00 55 1023.1
20200918051543 55 360 1.0 7.0 0.00 0.00 0.00 55 1023.0
20200918051026 56 360 1.0 5.0 0.00 0.00 0.00 55 1023.1
20200918050534 56 360 0.0 5.0 0.00 0.00 0.00 53 1022.9
20200918050053 57 360 0.0 0.0 0.00 0.00 0.00 53 1023.0
20200918045538 57 360 0.0 0.0 0.00 0.00 0.00 52 1023.0
20200918045102 58 360 0.0 0.0 0.00 0.00 0.00 51 1023.0
20200918044603 59 244 0.0 0.0 0.00 0.00 0.00 50 1022.9
20200918044028 60 360 0.0 0.0 0.00 0.00 0.00 49 1022.8
20200918043529 61 360 0.0 0.0 0.00 0.00 0.00 48 1022.8
20200918043036 61 360 0.0 5.0 0.00 0.00 0.00 47 1022.9
20200918042536 61 360 0.0 5.0 0.00 0.00 0.00 47 1022.9
20200918042036 62 360 0.0 2.0 0.00 0.00 0.00 46 1022.8
20200918041540 62 360 0.0 2.0 0.00 0.00 0.00 45 1022.8
20200918041102 62 360 0.0 2.0 0.00 0.00 0.00 45 1022.8
20200918040544 62 360 0.0 3.0 0.00 0.00 0.00 47 1022.8
20200918040028 63 360 0.0 4.0 0.00 0.00 0.00 46 1022.6
20200918035532 63 360 0.0 4.0 0.00 0.00 0.00 46 1022.7
20200918035033 64 360 2.0 3.0 0.00 0.00 0.00 45 1022.7
20200918034540 64 360 0.0 2.0 0.00 0.00 0.00 46 1022.8
20200918034043 64 360 0.0 2.0 0.00 0.00 0.00 45 1022.7
20200918033603 65 360 0.0 0.0 0.00 0.00 0.00 45 1022.6
20200918033049 65 360 0.0 4.0 0.00 0.00 0.00 43 1022.6
20200918032546 66 360 0.0 11.0 0.00 0.00 0.00 42 1022.4
20200918032048 65 360 4.0 11.0 0.00 0.00 0.00 43 1022.3
20200918031533 65 265 5.0 8.0 0.00 0.00 0.00 43 1022.4
20200918031037 65 360 4.0 6.0 0.00 0.00 0.00 44 1022.4
20200918030538 64 241 0.0 7.0 0.00 0.00 0.00 44 1022.2
20200918030039 64 241 4.0 7.0 0.00 0.00 0.00 44 1022.1
20200918025542 64 238 0.0 6.0 0.00 0.00 0.00 45 1022.2
20200918025049 64 360 4.0 6.0 0.00 0.00 0.00 44 1022.0
20200918024528 64 238 5.0 7.0 0.00 0.00 0.00 44 1021.8
20200918024034 65 360 5.0 7.0 0.00 0.00 0.00 43 1021.8
20200918023619 66 239 4.0 6.0 0.00 0.00 0.00 42 1021.7
20200918023033 66 360 2.0 6.0 0.00 0.00 0.00 43 1021.7
20200918022540 66 245 2.0 6.0 0.00 0.00 0.00 42 1021.6
20200918022047 66 360 3.0 5.0 0.00 0.00 0.00 42 1021.4
20200918021525 66 248 3.0 5.0 0.00 0.00 0.00 42 1021.3
20200918021028 66 360 2.0 5.0 0.00 0.00 0.00 42 1021.2
20200918020531 66 360 3.0 5.0 0.00 0.00 0.00 42 1021.1
20200918020034 67 360 0.0 6.0 0.00 0.00 0.00 40 1021.1
20200918015556 68 360 3.0 7.0 0.00 0.00 0.00 39 1021.1
20200918015038 68 360 6.0 7.0 0.00 0.00 0.00 38 1021.1
20200918014540 69 360 4.0 6.0 0.00 0.00 0.00 38 1021.1
20200918014051 70 318 2.0 3.0 0.00 0.00 0.00 36 1021.0
20200918013545 72 318 0.0 4.0 0.00 0.00 0.00 36 1020.9
20200918013041 72 318 1.0 4.0 0.00 0.00 0.00 35 1020.9
20200918012533 74 318 2.0 4.0 0.00 0.00 0.00 34 1020.8
20200918012055 75 318 1.0 2.0 0.00 0.00 0.00 32 1020.8
20200918011538 76 318 0.0 1.0 0.00 0.00 0.00 31 1020.8
20200918011042 77 319 0.0 1.0 0.00 0.00 0.00 30 1020.7
20200918010629 77 319 0.0 1.0 0.00 0.00 0.00 30 1020.7
20200918010122 78 320 0.0 4.0 0.00 0.00 0.00 29 1020.6
20200918005528 78 317 2.0 4.0 0.00 0.00 0.00 28 1020.5
20200918005029 79 319 0.0 1.0 0.00 0.00 0.00 28 1020.5
20200918004551 79 320 0.0 4.0 0.00 0.00 0.00 28 1020.4
20200918004033 79 320 0.0 6.0 0.00 0.00 0.00 27 1020.4
20200918003631 80 360 3.0 6.0 0.00 0.00 0.00 27 1020.4
20200918003038 80 360 4.0 6.0 0.00 0.00 0.00 27 1020.4
20200918002540 80 360 4.0 8.0 0.00 0.00 0.00 27 1020.4
20200918002047 81 360 5.0 9.0 0.00 0.00 0.00 27 1020.4
20200918001525 81 360 6.0 9.0 0.00 0.00 0.00 27 1020.4
20200918001029 81 360 5.0 10.0 0.00 0.00 0.00 27 1020.5
20200918000541 82 360 2.0 10.0 0.00 0.00 0.00 27 1020.4
20200918000036 82 360 5.0 9.0 0.00 0.00 0.00 26 1020.4
20200917235540 82 360 4.0 9.0 0.00 0.00 0.00 27 1020.4
20200917235041 82 360 5.0 7.0 0.00 0.00 0.00 26 1020.4